Location: Jackson Park
(37.2862°N, 79.9123°W)
Time: 12:08:44
(UTC+00:00)

Vanguard 3 - Pass Details

Date: 16 May 2026
Orbit: 507 x 3204 km, 33.3° (Epoch: 11 June)

Event Time Altitude Azimuth Distance (km) Brightness Sun altitude
Rises 21:37:18 0° 271° (W) 7,056 13.1 30.9°
Reaches altitude 10° 21:41:57 10° 271° (W) 6,112 13.3 30.0°
Maximum altitude 22:01:35 75° 191° (S) 2,923 10.4 26.1°
Drops below altitude 10° 22:15:35 10° 109° (ESE) 4,562 10.5 23.3°
Sets 22:18:31 0° 107° (ESE) 5,262 10.7 22.7°
